When you browse on this site, cookies collect data to enhance your experience and personalize the content and advertising you see.
Visit our Privacy Policy to learn more. By continuing to use the site, you agree to this use of cookies and data.
  • In Österreich
  • Länderverzeichnis
  • Für 7 Tage
  • Wassertemperatur
  • Satellitenkarten
  • Wetterkarte
  • News
  • Widgets
  • user-avatar
    Anmelden

    Stündliche Wetter Julara

    Heute, 18 Januar, Freitag

    Zeit Temperatur Niederschläge Wind Luftdruck Luftfeuchtigkeit
    00:00 +38°C° 0 mm 6 m/S 711 mmHg 22%
    01:00 +36°C° 0 mm 6 m/S 711 mmHg 24%
    02:00 +35°C° 0 mm 6 m/S 711 mmHg 25%
    03:00 +34°C° 0 mm 6 m/S 711 mmHg 29%
    04:00 +33°C° 0 mm 6 m/S 712 mmHg 30%
    05:00 +33°C° 0 mm 5 m/S 712 mmHg 32%
    06:00 +32°C° 0 mm 5 m/S 712 mmHg 33%
    07:00 +34°C° 0 mm 5 m/S 713 mmHg 31%
    08:00 +36°C° 0 mm 5 m/S 713 mmHg 28%
    09:00 +37°C° 0 mm 5 m/S 714 mmHg 26%
    10:00 +40°C° 0 mm 6 m/S 714 mmHg 24%
    11:00 +41°C° 0 mm 6 m/S 714 mmHg 22%
    12:00 +44°C° 0 mm 6 m/S 714 mmHg 20%
    13:00 +44°C° 0 mm 7 m/S 714 mmHg 19%
    14:00 +45°C° 0 mm 7 m/S 713 mmHg 19%
    15:00 +46°C° 0 mm 8 m/S 713 mmHg 18%
    16:00 +43°C° 1.5 mm 7 m/S 713 mmHg 24%
    17:00 +40°C° 1.5 mm 6 m/S 713 mmHg 29%
    18:00 +37°C° 1.5 mm 5 m/S 714 mmHg 34%
    19:00 +35°C° 8.3 mm 7 m/S 714 mmHg 43%
    20:00 +33°C° 8.3 mm 8 m/S 715 mmHg 51%
    21:00 +29°C° 8.3 mm 10 m/S 716 mmHg 60%
    22:00 +29°C° 2.3 mm 10 m/S 716 mmHg 61%
    23:00 +28°C° 2.3 mm 11 m/S 716 mmHg 63%

    Morgen, 19 Januar, Samstag

    Zeit Temperatur Niederschläge Wind Luftdruck Luftfeuchtigkeit
    00:00 +27°C° 2.3 mm 12 m/S 717 mmHg 65%
    01:00 +27°C° 0.7 mm 11 m/S 716 mmHg 64%
    02:00 +27°C° 0.7 mm 10 m/S 716 mmHg 64%
    03:00 +27°C° 0.7 mm 9 m/S 716 mmHg 64%
    04:00 +27°C° 0.3 mm 8 m/S 716 mmHg 64%
    05:00 +27°C° 0.3 mm 7 m/S 717 mmHg 64%
    06:00 +27°C° 0.3 mm 6 m/S 717 mmHg 63%
    07:00 +29°C° 0 mm 7 m/S 717 mmHg 56%
    08:00 +31°C° 0 mm 8 m/S 718 mmHg 48%
    09:00 +32°C° 0 mm 9 m/S 718 mmHg 40%
    10:00 +34°C° 0 mm 9 m/S 718 mmHg 36%
    11:00 +37°C° 0 mm 8 m/S 717 mmHg 32%
    12:00 +39°C° 0 mm 8 m/S 717 mmHg 27%
    13:00 +40°C° 0 mm 7 m/S 717 mmHg 25%
    14:00 +41°C° 0 mm 6 m/S 716 mmHg 23%
    15:00 +42°C° 0 mm 5 m/S 716 mmHg 22%
    16:00 +42°C° 0 mm 5 m/S 716 mmHg 21%
    17:00 +42°C° 0 mm 5 m/S 716 mmHg 21%
    18:00 +42°C° 0 mm 5 m/S 715 mmHg 21%
    19:00 +41°C° 0.1 mm 5 m/S 716 mmHg 23%
    20:00 +40°C° 0.1 mm 6 m/S 716 mmHg 25%
    21:00 +39°C° 0.1 mm 6 m/S 717 mmHg 27%
    22:00 +37°C° 0.2 mm 5 m/S 717 mmHg 29%
    23:00 +36°C° 0.2 mm 5 m/S 717 mmHg 31%

    übermorgen, 20 Januar, Sonntag

    Zeit Temperatur Niederschläge Wind Luftdruck Luftfeuchtigkeit
    00:00 +36°C° 0.2 mm 5 m/S 717 mmHg 33%
    01:00 +35°C° 0 mm 6 m/S 717 mmHg 32%
    02:00 +34°C° 0 mm 7 m/S 717 mmHg 31%
    03:00 +33°C° 0 mm 8 m/S 716 mmHg 30%
    04:00 +33°C° 0 mm 8 m/S 716 mmHg 30%
    05:00 +32°C° 0 mm 8 m/S 717 mmHg 30%
    06:00 +32°C° 0 mm 8 m/S 717 mmHg 30%
    07:00 +33°C° 0 mm 8 m/S 717 mmHg 28%
    08:00 +34°C° 0 mm 9 m/S 718 mmHg 26%
    09:00 +35°C° 0 mm 9 m/S 718 mmHg 24%
    10:00 +38°C° 0 mm 8 m/S 718 mmHg 23%
    11:00 +39°C° 0 mm 8 m/S 718 mmHg 22%
    12:00 +40°C° 0 mm 7 m/S 717 mmHg 21%
    13:00 +41°C° 0 mm 6 m/S 717 mmHg 19%
    14:00 +43°C° 0 mm 5 m/S 716 mmHg 17%
    15:00 +45°C° 0 mm 4 m/S 715 mmHg 14%
    16:00 +45°C° 0 mm 5 m/S 715 mmHg 15%
    17:00 +43°C° 0 mm 5 m/S 715 mmHg 16%
    18:00 +44°C° 0 mm 6 m/S 715 mmHg 17%
    19:00 +41°C° 0 mm 8 m/S 715 mmHg 19%
    20:00 +40°C° 0 mm 9 m/S 716 mmHg 20%
    21:00 +39°C° 0 mm 11 m/S 716 mmHg 22%
    22:00 +38°C° 0 mm 11 m/S 716 mmHg 23%
    23:00 +37°C° 0 mm 11 m/S 716 mmHg 25%

    21 Januar, Montag

    Zeit Temperatur Niederschläge Wind Luftdruck Luftfeuchtigkeit
    00:00 +34°C° 0 mm 10 m/S 716 mmHg 26%
    01:00 +34°C° 0 mm 10 m/S 716 mmHg 28%
    02:00 +33°C° 0 mm 10 m/S 716 mmHg 29%
    03:00 +33°C° 0 mm 9 m/S 715 mmHg 30%
    04:00 +32°C° 0 mm 9 m/S 716 mmHg 32%
    05:00 +32°C° 0 mm 8 m/S 716 mmHg 33%
    06:00 +31°C° 0 mm 8 m/S 716 mmHg 34%
    07:00 +33°C° 0 mm 8 m/S 716 mmHg 30%
    08:00 +37°C° 0 mm 9 m/S 717 mmHg 26%
    09:00 +39°C° 0 mm 9 m/S 717 mmHg 23%
    10:00 +41°C° 0 mm 8 m/S 717 mmHg 20%
    11:00 +43°C° 0 mm 7 m/S 716 mmHg 17%
    12:00 +45°C° 0 mm 6 m/S 716 mmHg 15%
    13:00 +46°C° 0 mm 5 m/S 715 mmHg 13%
    14:00 +47°C° 0 mm 5 m/S 714 mmHg 12%
    15:00 +47°C° 0 mm 5 m/S 714 mmHg 11%
    16:00 +47°C° 0 mm 5 m/S 714 mmHg 12%
    17:00 +46°C° 0 mm 5 m/S 714 mmHg 12%
    18:00 +46°C° 0 mm 5 m/S 714 mmHg 12%
    19:00 +45°C° 0 mm 5 m/S 714 mmHg 13%
    20:00 +43°C° 0 mm 5 m/S 714 mmHg 14%
    21:00 +42°C° 0 mm 4 m/S 715 mmHg 15%
    22:00 +41°C° 0 mm 5 m/S 715 mmHg 15%
    23:00 +41°C° 0 mm 5 m/S 715 mmHg 16%

    22 Januar, Dienstag

    Zeit Temperatur Niederschläge Wind Luftdruck Luftfeuchtigkeit
    00:00 +40°C° 0 mm 6 m/S 715 mmHg 17%
    01:00 +39°C° 0 mm 6 m/S 715 mmHg 18%
    02:00 +38°C° 0 mm 7 m/S 714 mmHg 18%
    03:00 +37°C° 0 mm 8 m/S 714 mmHg 19%
    04:00 +35°C° 0 mm 7 m/S 714 mmHg 21%
    05:00 +34°C° 0 mm 6 m/S 715 mmHg 23%
    06:00 +34°C° 0 mm 6 m/S 715 mmHg 24%
    07:00 +36°C° 0 mm 5 m/S 715 mmHg 22%
    08:00 +39°C° 0 mm 5 m/S 716 mmHg 20%
    09:00 +41°C° 0 mm 5 m/S 716 mmHg 17%
    10:00 +42°C° 0 mm 6 m/S 716 mmHg 16%
    11:00 +44°C° 0 mm 6 m/S 716 mmHg 14%
    12:00 +46°C° 0 mm 6 m/S 715 mmHg 13%
    13:00 +46°C° 0 mm 6 m/S 715 mmHg 12%
    14:00 +47°C° 0 mm 6 m/S 714 mmHg 12%
    15:00 +48°C° 0 mm 6 m/S 713 mmHg 11%
    16:00 +47°C° 0 mm 6 m/S 713 mmHg 12%
    17:00 +46°C° 0 mm 6 m/S 713 mmHg 12%
    18:00 +46°C° 0 mm 5 m/S 713 mmHg 13%
    19:00 +45°C° 0.1 mm 6 m/S 714 mmHg 14%
    20:00 +44°C° 0.1 mm 6 m/S 714 mmHg 15%
    21:00 +41°C° 0.1 mm 6 m/S 714 mmHg 16%
    22:00 +41°C° 0 mm 6 m/S 714 mmHg 17%
    23:00 +40°C° 0 mm 6 m/S 715 mmHg 18%

    23 Januar, Mittwoch

    Zeit Temperatur Niederschläge Wind Luftdruck Luftfeuchtigkeit
    00:00 +40°C° 0 mm 6 m/S 715 mmHg 19%
    01:00 +39°C° 0.1 mm 5 m/S 714 mmHg 21%
    02:00 +37°C° 0.1 mm 5 m/S 714 mmHg 23%
    03:00 +35°C° 0.1 mm 4 m/S 714 mmHg 25%
    04:00 +35°C° 0.2 mm 4 m/S 714 mmHg 27%
    05:00 +34°C° 0.2 mm 5 m/S 714 mmHg 29%
    06:00 +33°C° 0.2 mm 5 m/S 715 mmHg 32%
    07:00 +35°C° 0 mm 5 m/S 715 mmHg 28%
    08:00 +39°C° 0 mm 5 m/S 715 mmHg 24%
    09:00 +41°C° 0 mm 6 m/S 716 mmHg 20%
    10:00 +42°C° 0 mm 5 m/S 715 mmHg 19%
    11:00 +43°C° 0 mm 4 m/S 715 mmHg 17%
    12:00 +44°C° 0 mm 4 m/S 715 mmHg 16%
    13:00 +45°C° 0 mm 3 m/S 714 mmHg 15%
    14:00 +45°C° 0 mm 3 m/S 713 mmHg 14%
    15:00 +45°C° 0 mm 3 m/S 713 mmHg 13%
    16:00 +45°C° 0 mm 4 m/S 713 mmHg 14%
    17:00 +46°C° 0 mm 5 m/S 713 mmHg 14%
    18:00 +46°C° 0 mm 6 m/S 713 mmHg 15%
    19:00 +43°C° 0.1 mm 5 m/S 713 mmHg 16%
    20:00 +42°C° 0.1 mm 4 m/S 713 mmHg 18%
    21:00 +41°C° 0.1 mm 4 m/S 714 mmHg 20%
    22:00 +39°C° 0.1 mm 3 m/S 714 mmHg 21%
    23:00 +38°C° 0.1 mm 3 m/S 713 mmHg 23%
    Mehr zeigen